This demonstration page uses our WeatherBlox Daily Observations layout. Learn more.

Left ArrowRight Arrow

34.02893, -84.19858

Hourly Observations for February 11, 2022

Temp ( °F °C ) Dew Point ( °F °C ) Humidity (%) Winds ( mph kmh ) Pressure ( in mb ) Visibility ( mi km ) Precip ( " mm )
12:53 am 00:53 Clear 38 3.3 30 -1.1 73 73 Calm 30.06 1018 10 16 0.00 0.00
1:53 am 01:53 Clear 36 2.2 30 -1.1 79 79 Calm 30.05 1018 10 16 0.00 0.00
2:53 am 02:53 Clear 37 2.8 30 -1.1 76 76 SSW 3 6 30.04 1017 10 16 0.00 0.00
3:53 am 03:53 Clear 37 2.8 30 -1.1 76 76 Calm 30.03 1017 10 16 0.00 0.00
4:53 am 04:53 Clear 35 1.7 30 -1.1 82 82 Calm 30.04 1017 10 16 0.00 0.00
5:53 am 05:53 Clear 36 2.2 30 -1.1 79 79 Calm 30.05 1018 10 16 0.00 0.00
6:53 am 06:53 Clear 35 1.7 29 -1.7 78 78 Calm 30.07 1018 10 16 0.00 0.00
7:53 am 07:53 Sunny 34 1.1 29 -1.7 82 82 Calm 30.10 1019 10 16 0.00 0.00
8:53 am 08:53 Sunny 45 7.2 37 2.8 74 74 Calm 30.10 1019 10 16 0.00 0.00
9:53 am 09:53 Sunny 54 12.2 34 1.1 47 47 SSW 5 7 30.10 1019 10 16 0.00 0.00
10:53 am 10:53 Sunny 60 15.6 34 1.1 38 38 WSW 9 15 30.09 1019 10 16 0.00 0.00
11:53 am 11:53 Sunny 63 17.2 33 0.6 33 33 WSW 14 22 30.08 1019 10 16 0.00 0.00
12:53 pm 12:53 Sunny 64 17.8 32 0 30 30 W 12 19 30.06 1018 10 16 0.00 0.00
1:53 pm 13:53 Sunny 65 18.3 32 0 29 29 WSW 12 19 30.04 1017 10 16 0.00 0.00
2:53 pm 14:53 Sunny 66 18.9 31 -0.6 27 27 SSW 12 19 30.01 1016 10 16 0.00 0.00
3:53 pm 15:53 Sunny 66 18.9 32 0 28 28 S 13 20 29.98 1015 10 16 0.00 0.00
4:53 pm 16:53 Sunny 64 17.8 29 -1.7 27 27 SSE 9 15 29.98 1015 10 16 0.00 0.00
5:53 pm 17:53 Sunny 60 15.6 30 -1.1 32 32 SW 10 17 30.00 1016 10 16 0.00 0.00
6:53 pm 18:53 Clear 57 13.9 30 -1.1 36 36 SSW 3 6 30.02 1017 10 16 0.00 0.00
7:53 pm 19:53 Clear 55 12.8 30 -1.1 38 38 SSW 3 6 30.04 1017 10 16 0.00 0.00
8:53 pm 20:53 Clear 54 12.2 30 -1.1 40 40 SSW 3 6 30.04 1017 10 16 0.00 0.00
9:53 pm 21:53 Clear 46 7.8 31 -0.6 56 56 Calm 30.05 1018 10 16 0.00 0.00
10:53 pm 22:53 Clear 42 5.6 31 -0.6 65 65 Calm 30.06 1018 10 16 0.00 0.00
11:53 pm 23:53 Clear 47 8.3 32 0 56 56 SSW 5 7 30.05 1018 10 16 0.00 0.00

Powered by AerisWeather